Regional Weather Roundup
Issued by NWS

Home | Current Version | Previous Version | Text Only | Print | Product List | Glossary Off
Versions: 1 2 3 4 5 6 7 8 9 10 11 12 13 14 15 16 17 18 19 20 21 22 23 24 25 26 27 28 29 30 31 32 33 34 35 36 37 38 39 40 41 42 43 44 45 46 47 48 49 50

715
ASUS43 KIND 271659
RWRIN

WEATHER ROUNDUP FOR INDIANA
NATIONAL WEATHER SERVICE INDIANAPOLIS IN
100 PM EDT WED JUL 27 2016

NOTE: "FAIR" INDICATES FEW OR NO CLOUDS BELOW 12,000 FEET WITH NO
SIGNIFICANT WEATHER AND/OR OBSTRUCTIONS TO VISIBILITY.

* - STATION DOES NOT REPORT WEATHER SUCH AS PRECIPITATION OR FOG.

+ - STATION NOT QUALITY CONTROLLED BY THE NATIONAL WEATHER SERVICE.
    USE DATA WITH CAUTION...ESPECIALLY DEWPOINT AND RELATIVE
    HUMIDITY OBSERVATIONS.

INZ001>003-010>013-019-020-271800-
NORTHWEST INDIANA

CITY           SKY/WX    TMP DP  RH WIND       PRES   REMARKS
GARY /AIRPORT/ MOSUNNY   86  70  58 NE5       30.03R
KNOX *+        MOSUNNY   82  54  36 CALM      30.02S
MONTICELLO +   PTSUNNY   83  63  51 CALM      30.03R
RENSSELAER +   SUNNY     82  66  57 SW3       30.04S

$$

LMZ046-743>745-271800-
SOUTHERN LAKE MICHIGAN

STATION/POSITION TIME  TEMP    WIND        PRES    WAVE
                       AIR SEA DIR/SP/G            HT
                 (UTC) (F)     (DEG/KT/KT) (MB)    (FT)
BURNS HARBOR     1600   76     350/  3/  4 1016.9S
MICHIGAN CITY    1600   78     300/  3/  4   N/A
5NW MICH CITY    1600   76 76  310/  2/  2   N/A     0

$$

INZ004-005-014>016-021>024-271800-
NORTH CENTRAL INDIANA

CITY           SKY/WX    TMP DP  RH WIND       PRES   REMARKS
ELKHART        SUNNY     82  68  61 CALM      30.03
GOSHEN         SUNNY     85  58  39 MISG      30.03S
SOUTH BEND     MOSUNNY   83  66  56 VRB5      30.03S

$$

INZ006>009-017-018-025>027-271800-
NORTHEAST INDIANA

CITY           SKY/WX    TMP DP  RH WIND       PRES   REMARKS
ANGOLA *+        N/A     86  64  48 CALM      30.03S
FORT WAYNE     MOSUNNY   85  61  44 SW5       30.03S

$$

INZ028-029-035-036-043>045-051>053-271800-
WEST CENTRAL INDIANA

CITY           SKY/WX    TMP DP  RH WIND       PRES   REMARKS
CRAWFORDSVL +  MOSUNNY   82  66  59 CALM      30.03F
GREENCASTLE +  SUNNY     82  72  69 SE3       30.04S
LAFAYETTE      PTSUNNY   84  67  56 SE5       30.02F
TERRE HAUTE    SUNNY     84  68  58 E5        30.01F

$$

INZ030>032-037>040-046>048-054>057-064-065-271800-
CENTRAL INDIANA

CITY           SKY/WX    TMP DP  RH WIND       PRES   REMARKS
COLUMBUS       MOSUNNY   81  75  83 CALM      30.02S
INDIANAPOLIS   MOSUNNY   84  64  50 VRB3      30.02F
-EAGLE CREEK   SUNNY     87  65  47 VRB3      30.01F
KOKOMO *+      MOSUNNY   88  64  45 N5        30.03S
SHELBYVILLE    SUNNY     86  67  52 E3        30.01F

$$

INZ033-034-041-042-049-050-058-059-271800-
EAST CENTRAL INDIANA

CITY           SKY/WX    TMP DP  RH WIND       PRES   REMARKS
MUNCIE         SUNNY     86  64  47 N8        30.03F

$$

INZ060-061-067>069-081>083-085>088-271800-
SOUTHWEST INDIANA

CITY           SKY/WX    TMP DP  RH WIND       PRES   REMARKS
EVANSVILLE     MOSUNNY   88  74  63 CALM      29.99F HX  96
HUNTINGBURG *+ PTSUNNY   88  75  66 SE3       29.99F HX  97

$$

INZ062-063-066-070>080-084-089>092-271800-
SOUTH CENTRAL AND SOUTHEAST INDIANA

CITY           SKY/WX    TMP DP  RH WIND       PRES   REMARKS
BLOOMINGTON    CLOUDY    82  70  66 CALM      30.02F
MADISON *+     MOSUNNY   84  72  65 CALM      30.03F
SEYMOUR +      CLOUDY    86  73  66 CALM      30.01F

$$





USA.gov is the U.S. government's official web portal to all federal, state and local government web resources and services.